Location: Newark
(12.1500°S, 17.6667°E)
Time: 09:52:55
(UTC+00:00)

Envisat - Visible Passes

Search period start: 22 October 2019 00:00
Search period end: 01 November 2019 00:00
Orbit: 764 x 766 km, 98.1° (Epoch: 22 October)

Date Brightness Start Highest point End Pass type
(mag) Time Alt. Az. Time Alt. Az. Time Alt. Az.
22 Oct 3.5 17:40:43 10° S 17:45:47 65° WSW 17:50:48 10° NNW visible
23 Oct 3.3 17:04:14 10° SSE 17:09:05 44° E 17:13:54 10° N visible
23 Oct 6.3 18:46:12 10° SW 18:47:40 11° WSW 18:49:08 10° W visible
24 Oct 4.9 18:06:42 10° SSW 18:11:10 31° WSW 18:15:37 10° NW visible
25 Oct 3.0 17:29:25 10° S 17:34:32 88° WSW 17:39:37 10° NNW visible
26 Oct 6.0 18:33:34 10° SW 18:36:30 16° WSW 18:39:25 10° WNW visible
27 Oct 4.3 17:55:10 10° S 17:59:57 42° WSW 18:04:43 10° NNW visible
28 Oct 3.0 17:18:13 10° SSE 17:23:18 69° ENE 17:28:20 10° N visible
29 Oct 5.6 18:21:34 10° SSW 18:25:18 21° WSW 18:29:03 10° WNW visible
30 Oct 3.7 17:43:44 10° S 17:48:44 58° WSW 17:53:41 10° NNW visible
31 Oct 3.2 17:07:07 10° SSE 17:12:03 50° E 17:16:57 10° N visible
